TimeEDT,TemperatureF,Dew PointF,Humidity,Sea Level PressureIn,VisibilityMPH,Wind Direction,Wind SpeedMPH,Gust SpeedMPH,PrecipitationIn,Events,Conditions,WindDirDegrees,DateUTC
12:54 AM,55.0,35.1,47,30.10,10.0,SW,10.4,-,N/A,,Overcast,220,2012-03-13 04:54:00
1:54 AM,51.1,37.0,59,30.10,10.0,Calm,Calm,-,N/A,,Overcast,0,2012-03-13 05:54:00
2:54 AM,55.0,37.0,51,30.09,10.0,WSW,8.1,-,0.00,Rain,Light Rain,240,2012-03-13 06:54:00
3:54 AM,53.1,39.9,61,30.06,10.0,SW,8.1,-,0.00,,Overcast,220,2012-03-13 07:54:00
4:54 AM,51.1,39.9,66,30.06,10.0,SSW,4.6,-,N/A,,Overcast,210,2012-03-13 08:54:00
5:54 AM,50.0,39.0,66,30.05,10.0,South,5.8,-,N/A,,Overcast,190,2012-03-13 09:54:00
6:54 AM,48.9,41.0,74,30.05,10.0,South,5.8,-,0.00,,Mostly Cloudy,190,2012-03-13 10:54:00
7:54 AM,50.0,44.1,80,30.05,5.0,SSW,8.1,-,0.04,Rain,Light Rain,200,2012-03-13 11:54:00
8:54 AM,50.0,46.0,86,30.05,7.0,SW,9.2,-,0.02,Rain,Light Rain,230,2012-03-13 12:54:00
9:54 AM,51.1,46.9,86,30.02,10.0,South,8.1,-,0.01,,Overcast,190,2012-03-13 13:54:00
10:54 AM,57.0,50.0,77,30.00,10.0,SSW,12.7,-,N/A,,Mostly Cloudy,210,2012-03-13 14:54:00
11:54 AM,59.0,51.1,75,29.98,10.0,SW,15.0,-,N/A,,Overcast,230,2012-03-13 15:54:00
12:54 PM,64.9,53.1,65,29.96,10.0,SW,17.3,-,N/A,,Mostly Cloudy,220,2012-03-13 16:54:00
1:54 PM,66.0,52.0,60,29.91,10.0,SW,13.8,-,N/A,,Mostly Cloudy,220,2012-03-13 17:54:00
2:54 PM,69.1,52.0,54,29.89,10.0,SSW,17.3,-,N/A,,Scattered Clouds,210,2012-03-13 18:54:00
3:54 PM,70.0,52.0,53,29.87,10.0,SSW,13.8,-,N/A,,Scattered Clouds,200,2012-03-13 19:54:00
4:54 PM,71.1,50.0,47,29.86,10.0,SSW,17.3,-,N/A,,Scattered Clouds,210,2012-03-13 20:54:00
5:54 PM,69.1,50.0,51,29.87,10.0,SW,12.7,-,N/A,,Scattered Clouds,220,2012-03-13 21:54:00
6:54 PM,62.1,50.0,65,29.89,10.0,SSW,10.4,-,N/A,,Scattered Clouds,200,2012-03-13 22:54:00
7:54 PM,59.0,48.9,69,29.92,10.0,SSW,11.5,-,N/A,,Scattered Clouds,200,2012-03-13 23:54:00
8:54 PM,57.0,48.9,74,29.94,10.0,SSW,10.4,-,N/A,,Clear,210,2012-03-14 00:54:00
9:54 PM,55.0,48.0,77,29.95,10.0,South,6.9,-,N/A,,Partly Cloudy,190,2012-03-14 01:54:00
10:54 PM,52.0,48.9,89,29.95,10.0,South,6.9,-,0.00,,Mostly Cloudy,180,2012-03-14 02:54:00
11:54 PM,53.1,48.9,86,29.94,10.0,SSW,5.8,-,N/A,,Mostly Cloudy,210,2012-03-14 03:54:00